Regional Weather Roundup
Issued by NWS

Home | Current Version | Previous Version | Graphics & Text | Print | Product List | Glossary On
Versions: 1 2 3 4 5 6 7 8 9 10 11 12 13 14 15 16 17 18 19 20 21 22 23 24 25 26 27 28 29 30 31 32 33 34 35 36 37 38 39 40 41 42 43 44 45 46 47 48 49 50
000
ASUS45 KSLC 301110
RWRUT

UTAH REGIONAL WEATHER ROUNDUP
NATIONAL WEATHER SERVICE SALT LAKE CITY UT
500 AM MDT TUE JUN 30 2015

UTZ001>011-023>025-301200-

NORTHERN UTAH

CITY           SKY/WX    TMP DP  RH WIND       PRES   REMARKS
BRIGHAM CITY   PTCLDY    75  49  39 SW3       30.04S
HILL AFB       MOCLDY    75  50  41 E15       30.09R
LOGAN          CLEAR     66  57  72 CALM      30.09S
OGDEN          PTCLDY    76  51  41 SW7       30.05R
PROVO AIRPORT  CLOUDY    72  50  46 E7        30.10R
SALT LAKE CITY MOCLDY    79  54  41 SE6       30.03S
VERNAL         PTCLDY    68  43  40 NW3       30.14R
WENDOVER       PTCLDY    82  46  28 SE5       30.08R
HEBER CITY     MOCLDY    59  50  72 SE3       30.20R
WEST JORDAN    CLEAR     73  50  43 S5        30.09R

$$

UTZ012>022-026-027-301200-

SOUTHERN/CENTRAL UTAH

CITY           SKY/WX    TMP DP  RH WIND       PRES   REMARKS
BLANDING       PTCLDY    68  45  44 N7        30.28S
BRYCE CANYON   MOCLDY    57  44  62 CALM      30.37S
CEDAR CITY     PTCLDY    69  45  41 S3        30.20R
DELTA          MOCLDY    75  41  29 S10       30.12R
HANKSVILLE     PTCLDY    70  39  32 CALM      30.07R
MILFORD        PTCLDY    73  46  38 SW12      30.13S
MOAB/CYNLANDS  CLEAR     73  42  32 CALM      30.03R
PRICE          PTCLDY    67  38  34 CALM      30.17S
ST GEORGE      PTSUNNY   84  50  30 E10       29.99S
KANAB          PTCLDY    63  52  67 S3        30.21F

$$

REGIONAL REPORTS     COLORADO/ARIZONA

CITY           SKY/WX    TMP DP  RH WIND       PRES   REMARKS
CRAIG, CO      PTCLDY    51  45  79 W3        30.25R
GRAND JUNCTION CLEAR     70  44  39 E12       30.10R
RIFLE          PTCLDY    59  43  55 SE6       30.20R
MONTROSE       CLEAR     64  46  52 S8        30.22R
CORTEZ         CLEAR     58  48  69 VRB3      30.23R
PAGE, AZ       CLEAR     79  49  34 CALM      30.05S
GRAND CANYON   PTCLDY    52  49  89 CALM      30.29F
KINGMAN        CLOUDY    78  56  46 SE15      30.00S
FLAGSTAFF      CLOUDY    66  47  50 W5        30.31S

$$

REGIONAL REPORTS    NEVADA/IDAHO/WYOMING

CITY           SKY/WX    TMP DP  RH WIND       PRES   REMARKS
LAS VEGAS, NV  CLOUDY    95  54  25 S16G24    29.86S HX  93
ELY            PTCLDY    71  44  37 SW10      30.26S
ELKO           CLEAR     65  51  60 CALM      30.16R
POCATELLO, ID  CLEAR     65  60  84 NE5       30.10S
BURLEY         PTCLDY    66  56  70 N6        30.06R
EVANSTON, WY   MOCLDY    64  45  49 E8        30.31S
ROCK SPRINGS   MOCLDY    65  39  38 E6        30.26R
KEMMERER       MOCLDY    61  43  51 NW8       30.33S

$$



USA.gov is the U.S. government's official web portal to all federal, state and local government web resources and services.